Home   Weather   Erie   Past weeks

Flag for USA Past Weather in Erie, Pennsylvania, USA — Yesterday and Last 2 Weeks

Now
33 °F

Overcast.


Feels Like: 23 °F
Forecast: 33 / 36 °F
Wind: 16 mph from Southwest

Location: Erie International Airport

Current Time: Dec 8, 2016 at 7:05:18 am

Latest Report: Dec 8, 2016 at 5:51 am


Visibility: 10 mi

Pressure: 29.99 "Hg

Humidity: 66%

Dew Point: 23 °F

Location of ErieLocation

Past Weather in Erie — Graph

°F

Erie Temperature Yesterday

Maximum temperature yesterday: 43 °F (at 2:51 am)
Minimum temperature yesterday: 34 °F (at 9:51 pm)
Average temperature yesterday: 37 °F

High & Low Weather Summary for the Past Weeks

 TemperatureHumidityPressure
High59 °F (Nov 29, 2:51 pm)93% (Nov 24, 1:51 pm)30.34 "Hg (Nov 24, 1:51 pm)
Low32 °F (Nov 23, 7:51 am)38% (Nov 28, 5:51 pm)29.46 "Hg (Nov 30, 6:51 pm)
Average42 °F74%30.00 "Hg
* Reported Nov 23 5:51 am — Dec 8 5:51 am, Erie, Weather by CustomWeather, © 2016

Note: Actual official high and low records may vary slightly from our data, if they occured in-between our weather recording intervals... More about our weather records

Advertising

Erie Weather History for the Previous 24 Hours

Scroll right to see more
 ConditionsComfort  
Time TempWeatherWind HumidityBarometerVisibility
5:51 am
Thu, Dec 8
33 °FOvercast.16 mph66%29.99 "Hg10 mi
4:51 am33 °FMostly cloudy.17 mph66%29.99 "Hg10 mi
3:51 am34 °FPassing clouds.14 mph67%29.99 "Hg10 mi
2:51 am34 °FMostly cloudy.16 mph67%30.01 "Hg10 mi
1:51 am35 °FMostly cloudy.12 mph64%30.01 "Hg10 mi
12:51 am35 °FOvercast.16 mph64%30.01 "Hg10 mi
11:51 pm
Wed, Dec 7
35 °FMostly cloudy.17 mph61%30.02 "Hg10 mi
10:51 pm35 °FMostly cloudy.13 mph59%30.02 "Hg10 mi
9:51 pm34 °FPassing clouds.13 mph59%30.03 "Hg10 mi
8:51 pm35 °FPassing clouds.10 mph56%30.04 "Hg10 mi
7:51 pm35 °FPassing clouds.8 mph61%30.05 "Hg10 mi
6:51 pm35 °FClear.8 mph59%30.06 "Hg10 mi
5:51 pm35 °FClear.6 mph64%30.06 "Hg10 mi
4:51 pm36 °FClear.7 mph67%30.04 "Hg10 mi
3:51 pm38 °FSunny.7 mph65%30.03 "Hg10 mi
2:51 pm37 °FSunny.9 mph67%30.03 "Hg10 mi
1:51 pm37 °FSunny.10 mph65%30.04 "Hg10 mi
12:51 pm38 °FPassing clouds.9 mph58%30.02 "Hg10 mi
11:51 am37 °FOvercast.15 mph62%30.04 "Hg10 mi
10:51 am35 °FOvercast.18 mph67%30.05 "Hg10 mi
9:51 am36 °FMostly cloudy.14 mph67%30.04 "Hg10 mi
8:51 am36 °FOvercast.14 mph70%30.03 "Hg10 mi
7:51 am37 °FOvercast.14 mph70%30.00 "Hg10 mi
Weather by CustomWeather, © 2016

See weather overviewHow to use our weather pages